[[{"header":{"parameterUnit":"m.s-1","parameterCategory":1,"la1":30.2991,"la2":30.254,"lo1":-89.0895,"lo2":-89.0444,"dy":0.0017,"dx":0.0017,"nx":28,"ny":28,"refTime":"2023-11-06T03:00:00:Z","depth":0,"parameterNumber":2,"parameterNumberName":"U-component_of_WINDS"},"data":[0,0,0,0,0,0,0,0,0,0,0,0,0,0,0,0,0,0,0,0,0,0,0,0,0,0,0,0,0,0,0,0,0,0,0,0,0,0,0,0,0,0,0,0,0,0,0,0,0,0,0,0,0,0,0,0,0,0,1.4406,1.4406,0,1.4409,1.4409,1.4409,1.4348,1.4347,1.4345,1.4344,1.4346,1.4347,1.4349,0,0,0,0,0,0,0,0,0,0,0,0,0,1.4347,1.4348,1.4406,1.4406,1.4406,1.4409,1.4409,1.4409,1.4349,1.4347,1.4345,1.4343,1.4345,1.4347,1.4349,0,0,0,0,0,0,0,0,0,0,0,0,0,1.4363,1.4348,1.4406,1.4376,1.4373,1.4409,1.4409,1.4409,1.4349,1.4347,1.4344,1.4342,1.4345,1.4347,1.4349,1.4413,0,0,1.4357,1.4358,0,0,0,0,0,0,0,0,1.4362,1.4366,1.438,1.4378,1.4375,1.4376,1.4389,1.4411,1.435,1.4358,1.4343,1.4341,1.4358,1.4359,1.4365,1.4413,1.4413,1.4357,1.4358,1.4359,1.436,0,0,0,0,0,0,0,1.4361,1.4365,1.4407,1.4381,1.4378,1.4362,1.4362,1.4393,1.4372,1.4357,1.4353,1.4354,1.4356,1.4363,1.4364,1.4414,1.4357,1.4359,1.436,1.4361,1.4517,1.4519,0,0,0,0,0,0,1.4364,1.4365,1.4407,1.4407,1.4363,1.4366,1.4365,1.4378,1.4371,1.4368,1.4356,1.4351,1.436,1.4362,1.4364,1.444,1.4359,1.4362,1.4363,1.4514,1.4517,1.452,0,0,0,0,0,0,1.4363,1.4369,1.4407,1.4385,1.4388,1.4369,1.4384,1.4379,1.4386,1.437,1.4366,1.4367,1.4358,1.4361,1.4402,1.4439,1.4363,1.4365,1.4511,1.4515,1.4519,1.4591,0,0,0,0,0,0,1.4362,1.4369,1.4393,1.4386,1.439,1.4445,1.4386,1.4381,1.4391,1.4384,1.438,1.4377,1.4356,1.4399,1.4404,1.4441,1.4367,1.4507,1.4513,1.4517,1.4586,1.4597,1.4608,0,0,0,0,0,1.436,1.4412,1.4394,1.44,1.442,1.4447,1.4449,1.4425,1.4394,1.4418,1.4408,1.4377,1.4434,1.4404,1.4409,1.4447,1.4505,1.4511,1.4517,1.4581,1.4595,1.4607,0,0,0,0,0,0,1.4423,1.4411,1.4391,1.4442,1.4446,1.4437,1.4466,1.4441,1.4454,1.4447,1.4416,1.4416,1.4462,1.4458,1.4425,1.451,1.4464,1.4472,1.4511,1.4524,1.4535,1.4535,1.4369,0,0,0,0,0,1.4444,1.4467,1.4455,1.4502,1.4505,1.4486,1.4496,1.4478,1.448,1.4482,1.4475,1.4478,1.4497,1.451,1.4527,1.4585,1.4583,1.4614,1.4625,1.4634,1.4641,1.4673,1.4687,1.454,1.454,1.454,0,0,1.4485,1.4481,1.4498,1.4514,1.4515,1.4541,1.4487,1.4516,1.4534,1.4486,1.4525,1.452,1.4522,1.4572,1.4594,1.4571,1.4681,1.4642,1.4649,1.4651,1.4681,1.4695,1.4707,1.4544,1.4543,1.4543,0,0,1.4574,1.4573,1.4613,1.4615,1.4618,1.4605,1.4615,1.4609,1.4605,1.4643,1.4608,1.4629,1.4662,1.4666,1.4672,1.4764,1.4736,1.477,1.4828,1.486,1.4871,1.4881,1.4916,1.4928,1.4777,1.4778,1.4778,0,1.4625,1.4662,1.4636,1.4668,1.4677,1.4635,1.4676,1.4679,1.4687,1.4694,1.4668,1.4709,1.4708,1.4759,1.4782,1.4788,1.4798,1.4771,1.4872,1.4882,1.4891,1.4923,1.4936,1.4782,1.4781,1.4781,1.478,0,1.4726,1.4752,1.4784,1.4794,1.4806,1.4842,1.4822,1.4838,1.4818,1.4808,1.4849,1.4846,1.4862,1.4872,1.4853,1.4922,1.4907,1.4877,1.483,1.4909,1.4939,1.4951,1.4788,1.4786,1.4785,1.4784,0,0,1.4854,1.4851,1.4863,1.4868,1.4868,1.4888,1.4922,1.4939,1.4953,1.496,1.4989,1.5019,1.4991,1.4998,1.4979,1.5007,1.5082,1.4973,1.4973,1.4995,1.5159,1.5183,1.5198,1.5063,1.5066,1.5067,1.5159,0,1.4942,1.5001,1.498,1.504,1.5065,1.5027,1.5057,1.5061,1.5053,1.5072,1.5063,1.5085,1.5046,1.5051,1.5076,1.5068,1.5115,1.5061,1.509,1.5092,1.5092,1.5213,1.5238,1.5325,1.5171,1.5173,1.5174,0,1.5051,1.5065,1.5128,1.5126,1.5136,1.5164,1.5178,1.5197,1.5201,1.5193,1.5202,1.5178,1.5212,1.5165,1.5212,1.5176,1.5187,1.5185,1.5187,1.519,1.5138,1.522,1.5352,1.5365,1.5192,1.5191,1.5189,0,1.5141,1.5174,1.5217,1.5222,1.522,1.5241,1.5241,1.5242,1.5254,1.5266,1.5274,1.529,1.5299,1.5312,1.5292,1.526,1.5343,1.5294,1.5338,1.5339,1.5358,1.5357,1.5494,1.5363,1.5363,1.5363,1.5363,0,1.5241,1.5282,1.5257,1.5283,1.5328,1.5303,1.5348,1.5344,1.5346,1.5371,1.5338,1.5363,1.5335,1.5357,1.5342,1.5385,1.5388,1.5383,1.5379,1.5387,1.5388,1.5394,1.5388,1.5366,1.5365,1.5365,1.5364,0,1.5348,1.5333,1.5377,1.5373,1.5373,1.5406,1.5402,1.5427,1.5417,1.5449,1.5455,1.544,1.5464,1.5446,1.547,1.546,1.5516,1.5502,1.5515,1.5512,1.5557,1.5554,1.5704,1.5723,1.5579,1.558,1.5582,0,1.5414,1.5444,1.5444,1.5459,1.5462,1.5486,1.5498,1.5475,1.549,1.5497,1.5521,1.5543,1.5559,1.56,1.5591,1.5609,1.5596,1.5648,1.5599,1.5606,1.5599,1.5598,1.5601,1.5658,1.566,1.5661,1.5662,0,1.5532,1.5524,1.5543,1.5561,1.5577,1.559,1.5599,1.5613,1.559,1.5608,1.5633,1.5646,1.5671,1.5693,1.5708,1.5708,1.5682,1.5678,1.5689,1.5698,1.5705,1.5703,1.5543,1.5674,1.5673,1.5672,1.5672,1.5671,1.5621,1.5648,1.5652,1.5675,1.5681,1.5691,1.5715,1.5708,1.5729,1.5748,1.5733,1.5764,1.5768,1.5786,1.5789,1.5813,1.5792,1.5808,1.5812,1.5817,1.5824,1.57,1.5815,1.5815,1.5815,1.5814,1.5814,0,1.5739,1.5741,1.5762,1.5778,1.5797,1.5771,1.5781,1.5798,1.5826,1.5832,1.585,1.5879,1.5901,1.5894,1.5914,1.5934,1.5923,1.594,1.5939,1.594,1.5841,1.583,1.5949,1.5949,1.5949,1.5949,1.5949,1.5949,1.5803,1.5847,1.5839,1.5886,1.5886,1.5917,1.5925,1.5935,1.594,1.5975,1.5993,1.5989,1.5991,1.601,1.603,1.6027,1.6036,1.6059,1.6052,1.596,1.5946,1.5934,1.5923,1.6061,1.6061,1.6149,1.615,1.6151]},{"header":{"parameterUnit":"m.s-1","parameterCategory":1,"la1":30.2991,"la2":30.254,"lo1":-89.0895,"lo2":-89.0444,"dy":0.0017,"dx":0.0017,"nx":28,"ny":28,"refTime":"2023-11-06T03:00:00:Z","depth":0,"parameterNumber":3,"parameterNumberName":"V-component_of_WINDS"},"data":[0,0,0,0,0,0,0,0,0,0,0,0,0,0,0,0,0,0,0,0,0,0,0,0,0,0,0,0,0,0,0,0,0,0,0,0,0,0,0,0,0,0,0,0,0,0,0,0,0,0,0,0,0,0,0,0,0,0,-0.3305,-0.3305,0,-0.3282,-0.3282,-0.3282,-0.3276,-0.3276,-0.3277,-0.3277,-0.3251,-0.325,-0.3249,0,0,0,0,0,0,0,0,0,0,0,0,0,-0.3342,-0.3342,-0.3305,-0.3305,-0.3305,-0.3282,-0.3282,-0.3282,-0.3276,-0.3276,-0.3277,-0.3277,-0.3251,-0.325,-0.3249,0,0,0,0,0,0,0,0,0,0,0,0,0,-0.3323,-0.3342,-0.3305,-0.3299,-0.3299,-0.3283,-0.3282,-0.3282,-0.3276,-0.3276,-0.3277,-0.3277,-0.3252,-0.325,-0.3249,-0.3237,0,0,-0.3245,-0.3245,0,0,0,0,0,0,0,0,-0.3325,-0.3322,-0.3301,-0.33,-0.3299,-0.3283,-0.3286,-0.3267,-0.3276,-0.3285,-0.3277,-0.3277,-0.3261,-0.3259,-0.3254,-0.3235,-0.3234,-0.3245,-0.3244,-0.3244,-0.3244,0,0,0,0,0,0,0,-0.3326,-0.3323,-0.3296,-0.33,-0.3299,-0.3297,-0.3295,-0.3282,-0.3272,-0.3284,-0.3283,-0.3281,-0.3261,-0.3255,-0.3254,-0.3234,-0.3245,-0.3244,-0.3243,-0.3243,-0.3204,-0.3204,0,0,0,0,0,0,-0.3329,-0.3324,-0.3297,-0.3295,-0.3313,-0.3296,-0.3294,-0.3287,-0.3272,-0.327,-0.3281,-0.3281,-0.3257,-0.3255,-0.3253,-0.3237,-0.3244,-0.3243,-0.3242,-0.3204,-0.3204,-0.3204,0,0,0,0,0,0,-0.3329,-0.3326,-0.3298,-0.331,-0.3306,-0.3295,-0.3289,-0.3287,-0.3282,-0.327,-0.3267,-0.3277,-0.3257,-0.3254,-0.3241,-0.3236,-0.3242,-0.3241,-0.3205,-0.3204,-0.3204,-0.3206,0,0,0,0,0,0,-0.333,-0.3327,-0.3322,-0.331,-0.3305,-0.3287,-0.3288,-0.3286,-0.328,-0.328,-0.3266,-0.3264,-0.3257,-0.3243,-0.324,-0.3234,-0.324,-0.3205,-0.3204,-0.3204,-0.3206,-0.3206,-0.3205,0,0,0,0,0,-0.3332,-0.3323,-0.3322,-0.3319,-0.33,-0.3287,-0.3284,-0.3278,-0.3279,-0.3275,-0.3267,-0.3264,-0.3237,-0.3241,-0.3238,-0.3232,-0.3205,-0.3205,-0.3204,-0.3207,-0.3206,-0.3205,0,0,0,0,0,0,-0.3334,-0.3321,-0.332,-0.3307,-0.3298,-0.3286,-0.328,-0.3277,-0.3267,-0.3267,-0.3259,-0.3256,-0.3243,-0.3236,-0.3241,-0.322,-0.3221,-0.322,-0.3224,-0.3224,-0.3223,-0.3225,-0.3239,0,0,0,0,0,-0.3333,-0.3324,-0.3313,-0.3303,-0.3299,-0.329,-0.3284,-0.328,-0.327,-0.3266,-0.3258,-0.3248,-0.3237,-0.323,-0.3219,-0.3205,-0.3202,-0.32,-0.3199,-0.3199,-0.3198,-0.319,-0.3189,-0.3202,-0.3202,-0.3202,0,0,-0.3331,-0.3323,-0.3318,-0.3303,-0.3296,-0.3287,-0.3287,-0.3277,-0.3269,-0.3264,-0.3251,-0.3245,-0.3233,-0.3219,-0.3213,-0.3213,-0.3194,-0.3198,-0.3198,-0.3197,-0.3189,-0.3188,-0.3187,-0.3201,-0.3201,-0.3201,0,0,-0.3322,-0.3315,-0.3306,-0.3299,-0.3288,-0.3283,-0.3281,-0.3269,-0.3265,-0.3252,-0.3248,-0.3239,-0.322,-0.3212,-0.3206,-0.3195,-0.3192,-0.3192,-0.3188,-0.3181,-0.318,-0.3179,-0.3175,-0.3174,-0.319,-0.319,-0.319,0,-0.332,-0.3307,-0.3301,-0.3292,-0.3285,-0.3282,-0.3272,-0.3265,-0.3251,-0.3247,-0.3248,-0.3225,-0.3217,-0.3201,-0.3199,-0.3194,-0.3191,-0.3193,-0.3181,-0.318,-0.3179,-0.3175,-0.3173,-0.319,-0.319,-0.319,-0.319,0,-0.3305,-0.3296,-0.329,-0.3277,-0.327,-0.3261,-0.3253,-0.3247,-0.3244,-0.3238,-0.3224,-0.3215,-0.3202,-0.3198,-0.3195,-0.3182,-0.3183,-0.3182,-0.3184,-0.3178,-0.3174,-0.3172,-0.319,-0.319,-0.319,-0.319,0,0,-0.3296,-0.3282,-0.328,-0.3274,-0.3263,-0.3255,-0.3245,-0.3234,-0.3228,-0.3219,-0.321,-0.3195,-0.3195,-0.3188,-0.3183,-0.3177,-0.3168,-0.3177,-0.3176,-0.3175,-0.3154,-0.3154,-0.3153,-0.3167,-0.3166,-0.3166,-0.3155,0,-0.3286,-0.3269,-0.3264,-0.3249,-0.3241,-0.3237,-0.3229,-0.322,-0.3215,-0.3206,-0.3199,-0.3189,-0.3189,-0.3185,-0.3178,-0.3171,-0.3164,-0.3172,-0.3158,-0.3157,-0.3161,-0.3151,-0.3151,-0.3141,-0.3154,-0.3153,-0.3153,0,-0.3271,-0.3263,-0.3248,-0.3238,-0.3234,-0.3226,-0.3216,-0.3207,-0.3198,-0.3194,-0.3187,-0.3183,-0.3172,-0.3174,-0.3159,-0.3164,-0.3159,-0.3154,-0.3154,-0.3152,-0.3155,-0.3148,-0.3138,-0.3136,-0.3151,-0.3151,-0.3151,0,-0.3266,-0.3251,-0.324,-0.3235,-0.3223,-0.3218,-0.3213,-0.3204,-0.3197,-0.3188,-0.3184,-0.3173,-0.3167,-0.3158,-0.3152,-0.3154,-0.3137,-0.3139,-0.3133,-0.3133,-0.3129,-0.3129,-0.3117,-0.3126,-0.3126,-0.3126,-0.3126,0,-0.3255,-0.3245,-0.3238,-0.3231,-0.322,-0.3215,-0.3204,-0.3199,-0.3191,-0.3182,-0.3179,-0.3171,-0.3162,-0.3153,-0.3148,-0.3136,-0.3133,-0.313,-0.3128,-0.313,-0.313,-0.3126,-0.3126,-0.3126,-0.3126,-0.3126,-0.3126,0,-0.3247,-0.3241,-0.3229,-0.3219,-0.3217,-0.3209,-0.32,-0.3193,-0.3188,-0.3178,-0.3175,-0.3166,-0.3155,-0.3148,-0.3134,-0.313,-0.3117,-0.3116,-0.3121,-0.312,-0.3115,-0.3115,-0.3098,-0.3096,-0.3107,-0.3107,-0.3107,0,-0.324,-0.3233,-0.3222,-0.3217,-0.3212,-0.3203,-0.3197,-0.3192,-0.3185,-0.3174,-0.3168,-0.3158,-0.3149,-0.3132,-0.3123,-0.3113,-0.3111,-0.3106,-0.3109,-0.3111,-0.3111,-0.3111,-0.311,-0.3105,-0.3105,-0.3105,-0.3105,0,-0.3227,-0.3225,-0.3217,-0.3208,-0.3201,-0.3194,-0.3186,-0.3182,-0.3174,-0.3167,-0.3157,-0.315,-0.3136,-0.3125,-0.3114,-0.3108,-0.3105,-0.3104,-0.3102,-0.3104,-0.3107,-0.3105,-0.3119,-0.3104,-0.3104,-0.3105,-0.3105,-0.3105,-0.322,-0.3213,-0.3206,-0.3197,-0.319,-0.3184,-0.3177,-0.3171,-0.3162,-0.3151,-0.3148,-0.3137,-0.3128,-0.3113,-0.3107,-0.3097,-0.3098,-0.3095,-0.3094,-0.3093,-0.3093,-0.3108,-0.3095,-0.3095,-0.3095,-0.3095,-0.3095,0,-0.3207,-0.3202,-0.3194,-0.3184,-0.3177,-0.3176,-0.3168,-0.3162,-0.3152,-0.3145,-0.3136,-0.3124,-0.3114,-0.3105,-0.3095,-0.3089,-0.3087,-0.3086,-0.3086,-0.3085,-0.3094,-0.3097,-0.3088,-0.3088,-0.3088,-0.3088,-0.3088,-0.3088,-0.32,-0.3189,-0.3186,-0.3173,-0.3168,-0.3158,-0.3153,-0.3146,-0.314,-0.3127,-0.3119,-0.3114,-0.3106,-0.3095,-0.3085,-0.3083,-0.3079,-0.3078,-0.3075,-0.3084,-0.3084,-0.3085,-0.3088,-0.3077,-0.3077,-0.3067,-0.3067,-0.3067]}]]